| time (UTC) | temp F | wind direction | speed MPH | gust MPH | rain 1hr in | rain 24hr in | rain mn in | humidity % | barometer mb |
| 20260503054654 | 98 | 0 | 0.0 | 0.0 | 0.00 | 0.00 | 0.00 | 36 | 971.0 |
| 20260503053629 | 97 | 0 | 0.0 | 0.0 | 0.00 | 0.00 | 0.00 | 39 | 971.0 |
| 20260503052634 | 94 | 0 | 0.0 | 0.0 | 0.00 | 0.00 | 0.00 | 40 | 971.0 |
| 20260503052603 | 94 | 0 | 0.0 | 0.0 | 0.00 | 0.00 | 0.00 | 40 | 971.0 |
| 20260503052036 | 95 | 0 | 0.0 | 0.0 | 0.00 | 0.00 | 0.00 | 40 | 971.0 |
| 20260503051010 | 95 | 0 | 0.0 | 0.0 | 0.00 | 0.00 | 0.00 | 41 | 972.0 |
| 20260503050620 | 94 | 0 | 0.0 | 0.0 | 0.00 | 0.00 | 0.00 | 39 | 972.0 |
| 20260503050618 | 94 | 0 | 0.0 | 0.0 | 0.00 | 0.00 | 0.00 | 39 | 972.0 |
| 20260503050510 | 95 | 0 | 0.0 | 0.0 | 0.00 | 0.00 | 0.00 | 39 | 972.0 |
| 20260503045446 | 96 | 0 | 0.0 | 0.0 | 0.00 | 0.00 | 0.00 | 39 | 972.0 |
| 20260503045444 | 96 | 0 | 0.0 | 0.0 | 0.00 | 0.00 | 0.00 | 39 | 972.0 |
| 20260503044421 | 96 | 0 | 0.0 | 0.0 | 0.00 | 0.00 | 0.00 | 38 | 972.0 |
| 20260503043354 | 96 | 0 | 0.0 | 0.0 | 0.00 | 0.00 | 0.00 | 40 | 972.0 |
| 20260503042330 | 96 | 0 | 0.0 | 0.0 | 0.00 | 0.00 | 0.00 | 39 | 972.0 |
| 20260503041305 | 94 | 0 | 0.0 | 0.0 | 0.00 | 0.00 | 0.00 | 43 | 973.0 |
| 20260503040241 | 96 | 0 | 0.0 | 0.0 | 0.00 | 0.00 | 0.00 | 40 | 973.0 |
| 20260503035216 | 96 | 0 | 0.0 | 0.0 | 0.00 | 0.00 | 0.00 | 41 | 973.0 |
| 20260503034152 | 95 | 0 | 0.0 | 0.0 | 0.00 | 0.00 | 0.00 | 39 | 973.0 |
| 20260503033128 | 96 | 0 | 0.0 | 0.0 | 0.00 | 0.00 | 0.00 | 42 | 973.0 |
| 20260503032103 | 95 | 0 | 0.0 | 0.0 | 0.00 | 0.00 | 0.00 | 42 | 973.0 |
| 20260503031038 | 94 | 0 | 0.0 | 0.0 | 0.00 | 0.00 | 0.00 | 44 | 973.0 |
| 20260503030015 | 93 | 0 | 0.0 | 0.0 | 0.00 | 0.00 | 0.00 | 47 | 973.0 |
| 20260503030013 | 93 | 0 | 0.0 | 0.0 | 0.00 | 0.00 | 0.00 | 47 | 973.0 |
| 20260503024949 | 92 | 0 | 0.0 | 0.0 | 0.00 | 0.00 | 0.00 | 52 | 973.0 |
| 20260503023924 | 91 | 0 | 0.0 | 0.0 | 0.00 | 0.00 | 0.00 | 49 | 974.0 |
| 20260503022900 | 89 | 0 | 0.0 | 0.0 | 0.00 | 0.00 | 0.00 | 59 | 974.0 |
| 20260503021835 | 85 | 0 | 0.0 | 0.0 | 0.00 | 0.00 | 0.00 | 73 | 974.0 |
| 20260503020810 | 85 | 0 | 0.0 | 0.0 | 0.00 | 0.00 | 0.00 | 74 | 974.0 |
| 20260503015745 | 84 | 0 | 0.0 | 0.0 | 0.00 | 0.00 | 0.00 | 73 | 973.0 |
| 20260503014719 | 84 | 0 | 0.0 | 0.0 | 0.00 | 0.00 | 0.00 | 72 | 973.0 |
| 20260503013652 | 83 | 0 | 0.0 | 0.0 | 0.00 | 0.00 | 0.00 | 77 | 973.0 |
| 20260503012627 | 82 | 0 | 0.0 | 0.0 | 0.00 | 0.00 | 0.00 | 80 | 973.0 |
| 20260503011608 | 82 | 0 | 0.0 | 0.0 | 0.00 | 0.00 | 0.00 | 83 | 973.0 |
| 20260503011601 | 82 | 0 | 0.0 | 0.0 | 0.00 | 0.00 | 0.00 | 83 | 973.0 |
| 20260503010537 | 82 | 0 | 0.0 | 0.0 | 0.00 | 0.00 | 0.00 | 83 | 973.0 |
| 20260503005512 | 81 | 0 | 0.0 | 0.0 | 0.00 | 0.00 | 0.00 | 83 | 973.0 |
| 20260503004448 | 81 | 0 | 0.0 | 0.0 | 0.00 | 0.00 | 0.00 | 86 | 973.0 |
| 20260503003421 | 80 | 0 | 0.0 | 0.0 | 0.00 | 0.00 | 0.00 | 91 | 973.0 |
| 20260503002357 | 78 | 0 | 0.0 | 0.0 | 0.00 | 0.00 | 0.00 | 98 | 973.0 |
| 20260503001328 | 78 | 0 | 0.0 | 0.0 | 0.00 | 0.00 | 0.00 | 99 | 972.0 |
| 20260503000301 | 78 | 0 | 0.0 | 0.0 | 0.00 | 0.00 | 0.00 | 99 | 972.0 |
| 20260502235239 | 77 | 0 | 0.0 | 0.0 | 0.00 | 0.00 | 0.00 | 99 | 972.0 |
| 20260502235235 | 77 | 0 | 0.0 | 0.0 | 0.00 | 0.00 | 0.00 | 99 | 972.0 |
| 20260502234208 | 78 | 0 | 0.0 | 0.0 | 0.00 | 0.00 | 0.00 | 99 | 972.0 |
| 20260502233143 | 78 | 0 | 0.0 | 0.0 | 0.00 | 0.00 | 0.00 | 93 | 971.0 |
| 20260502232118 | 77 | 0 | 0.0 | 0.0 | 0.00 | 0.00 | 0.00 | 92 | 971.0 |
| 20260502231054 | 76 | 0 | 0.0 | 0.0 | 0.00 | 0.00 | 0.00 | 90 | 971.0 |
| 20260502230030 | 75 | 0 | 0.0 | 0.0 | 0.00 | 0.00 | 0.00 | 92 | 971.0 |
| 20260502225005 | 76 | 0 | 0.0 | 0.0 | 0.00 | 0.00 | 0.00 | 96 | 971.0 |
| 20260502223940 | 76 | 0 | 0.0 | 0.0 | 0.00 | 0.00 | 0.00 | 97 | 971.0 |
| 20260502222915 | 76 | 0 | 0.0 | 0.0 | 0.00 | 0.00 | 0.00 | 99 | 971.0 |
| 20260502221850 | 77 | 0 | 0.0 | 0.0 | 0.00 | 0.00 | 0.00 | 99 | 971.0 |
| 20260502220826 | 76 | 0 | 0.0 | 0.0 | 0.00 | 0.00 | 0.00 | 96 | 971.0 |
| 20260502215800 | 76 | 0 | 0.0 | 0.0 | 0.00 | 0.00 | 0.00 | 97 | 971.0 |
| 20260502214726 | 77 | 0 | 0.0 | 0.0 | 0.00 | 0.00 | 0.00 | 99 | 971.0 |
| 20260502213654 | 77 | 0 | 0.0 | 0.0 | 0.00 | 0.00 | 0.00 | 99 | 971.0 |
| 20260502212628 | 77 | 0 | 0.0 | 0.0 | 0.00 | 0.00 | 0.00 | 99 | 970.0 |
| 20260502211625 | 77 | 0 | 0.0 | 0.0 | 0.00 | 0.00 | 0.00 | 99 | 970.0 |
| 20260502211604 | 77 | 0 | 0.0 | 0.0 | 0.00 | 0.00 | 0.00 | 99 | 970.0 |
| 20260502210540 | 77 | 0 | 0.0 | 0.0 | 0.00 | 0.00 | 0.00 | 98 | 970.0 |
| 20260502205515 | 77 | 0 | 0.0 | 0.0 | 0.00 | 0.00 | 0.00 | 93 | 970.0 |
| 20260502204450 | 77 | 0 | 0.0 | 0.0 | 0.00 | 0.00 | 0.00 | 89 | 970.0 |
| 20260502203426 | 77 | 0 | 0.0 | 0.0 | 0.00 | 0.00 | 0.00 | 84 | 970.0 |
| 20260502202401 | 77 | 0 | 0.0 | 0.0 | 0.00 | 0.00 | 0.00 | 77 | 970.0 |
| 20260502201335 | 78 | 0 | 0.0 | 0.0 | 0.00 | 0.00 | 0.00 | 87 | 970.0 |
| 20260502200310 | 77 | 0 | 0.0 | 0.0 | 0.00 | 0.00 | 0.00 | 88 | 970.0 |
| 20260502195245 | 78 | 0 | 0.0 | 0.0 | 0.00 | 0.00 | 0.00 | 84 | 970.0 |
| 20260502194220 | 77 | 0 | 0.0 | 0.0 | 0.00 | 0.00 | 0.00 | 84 | 970.0 |
| 20260502193156 | 78 | 0 | 0.0 | 0.0 | 0.00 | 0.00 | 0.00 | 95 | 970.0 |
| 20260502192132 | 78 | 0 | 0.0 | 0.0 | 0.00 | 0.00 | 0.00 | 91 | 970.0 |
| 20260502191107 | 78 | 0 | 0.0 | 0.0 | 0.00 | 0.00 | 0.00 | 86 | 970.0 |
| 20260502190042 | 78 | 0 | 0.0 | 0.0 | 0.00 | 0.00 | 0.00 | 86 | 970.0 |
| 20260502185017 | 79 | 0 | 0.0 | 0.0 | 0.00 | 0.00 | 0.00 | 87 | 970.0 |
| 20260502183952 | 78 | 0 | 0.0 | 0.0 | 0.00 | 0.00 | 0.00 | 89 | 970.0 |
| 20260502182928 | 79 | 0 | 0.0 | 0.0 | 0.00 | 0.00 | 0.00 | 84 | 971.0 |
| 20260502181902 | 79 | 0 | 0.0 | 0.0 | 0.00 | 0.00 | 0.00 | 81 | 971.0 |
| 20260502180838 | 79 | 0 | 0.0 | 0.0 | 0.00 | 0.00 | 0.00 | 84 | 971.0 |
| 20260502163454 | 80 | 0 | 0.0 | 0.0 | 0.00 | 0.00 | 0.00 | 84 | 971.0 |
| 20260502162430 | 79 | 0 | 0.0 | 0.0 | 0.00 | 0.00 | 0.00 | 73 | 971.0 |
| 20260502161403 | 79 | 0 | 0.0 | 0.0 | 0.00 | 0.00 | 0.00 | 79 | 971.0 |
| 20260502160339 | 79 | 0 | 0.0 | 0.0 | 0.00 | 0.00 | 0.00 | 74 | 970.0 |
| 20260502152159 | 80 | 0 | 0.0 | 0.0 | 0.00 | 0.00 | 0.00 | 72 | 970.0 |
| 20260502151132 | 80 | 0 | 0.0 | 0.0 | 0.00 | 0.00 | 0.00 | 74 | 970.0 |
| 20260502150107 | 81 | 0 | 0.0 | 0.0 | 0.00 | 0.00 | 0.00 | 71 | 970.0 |
| 20260502130618 | 85 | 0 | 0.0 | 0.0 | 0.00 | 0.00 | 0.00 | 55 | 968.0 |
| 20260502130309 | 85 | 0 | 0.0 | 0.0 | 0.00 | 0.00 | 0.00 | 55 | 968.0 |
| 20260502123152 | 87 | 0 | 0.0 | 0.0 | 0.00 | 0.00 | 0.00 | 57 | 968.0 |
| 20260502122128 | 88 | 0 | 0.0 | 0.0 | 0.00 | 0.00 | 0.00 | 46 | 967.0 |
| 20260502121107 | 88 | 0 | 0.0 | 0.0 | 0.00 | 0.00 | 0.00 | 43 | 967.0 |
| 20260502121103 | 88 | 0 | 0.0 | 0.0 | 0.00 | 0.00 | 0.00 | 43 | 967.0 |
| 20260502115013 | 90 | 0 | 0.0 | 0.0 | 0.00 | 0.00 | 0.00 | 46 | 967.0 |
| 20260502113948 | 91 | 0 | 0.0 | 0.0 | 0.00 | 0.00 | 0.00 | 40 | 966.0 |
| 20260502112922 | 92 | 0 | 0.0 | 0.0 | 0.00 | 0.00 | 0.00 | 43 | 966.0 |
| 20260502111858 | 92 | 0 | 0.0 | 0.0 | 0.00 | 0.00 | 0.00 | 42 | 966.0 |
| 20260502110844 | 92 | 0 | 0.0 | 0.0 | 0.00 | 0.00 | 0.00 | 42 | 966.0 |
| 20260502110833 | 92 | 0 | 0.0 | 0.0 | 0.00 | 0.00 | 0.00 | 42 | 966.0 |
| 20260502105808 | 93 | 0 | 0.0 | 0.0 | 0.00 | 0.00 | 0.00 | 40 | 966.0 |
| 20260502104743 | 93 | 0 | 0.0 | 0.0 | 0.00 | 0.00 | 0.00 | 42 | 966.0 |
| 20260502103718 | 93 | 0 | 0.0 | 0.0 | 0.00 | 0.00 | 0.00 | 37 | 966.0 |
| 20260502102653 | 94 | 0 | 0.0 | 0.0 | 0.00 | 0.00 | 0.00 | 34 | 966.0 |
| 20260502101629 | 96 | 0 | 0.0 | 0.0 | 0.00 | 0.00 | 0.00 | 37 | 966.0 |
| 20260502100626 | 98 | 0 | 0.0 | 0.0 | 0.00 | 0.00 | 0.00 | 34 | 966.0 |
| 20260502100604 | 98 | 0 | 0.0 | 0.0 | 0.00 | 0.00 | 0.00 | 34 | 966.0 |
| 20260502091403 | 99 | 0 | 0.0 | 0.0 | 0.00 | 0.00 | 0.00 | 35 | 966.0 |
| 20260502090337 | 98 | 0 | 0.0 | 0.0 | 0.00 | 0.00 | 0.00 | 33 | 966.0 |
| 20260502080109 | 101 | 0 | 0.0 | 0.0 | 0.00 | 0.00 | 0.00 | 32 | 967.0 |
| 20260502070908 | 102 | 0 | 0.0 | 0.0 | 0.00 | 0.00 | 0.00 | 32 | 968.0 |
| 20260502065843 | 103 | 0 | 0.0 | 0.0 | 0.00 | 0.00 | 0.00 | 31 | 968.0 |
| 20260502064819 | 101 | 0 | 0.0 | 0.0 | 0.00 | 0.00 | 0.00 | 33 | 969.0 |
| 20260502063754 | 100 | 0 | 0.0 | 0.0 | 0.00 | 0.00 | 0.00 | 34 | 969.0 |
| 20260502062730 | 101 | 0 | 0.0 | 0.0 | 0.00 | 0.00 | 0.00 | 34 | 969.0 |
| 20260502061705 | 101 | 0 | 0.0 | 0.0 | 0.00 | 0.00 | 0.00 | 35 | 969.0 |
| 20260502060640 | 102 | 0 | 0.0 | 0.0 | 0.00 | 0.00 | 0.00 | 32 | 970.0 |